Location: Franzen
(48.6167°N, 15.3833°E)
Time: 10:48:36
(UTC+00:00)

Cosmos 2219 - Pass Details

Date: 22 April 2021
Orbit: 834 x 860 km, 71.1° (Epoch: 16 May)

Event Time Altitude Azimuth Distance (km) Brightness Sun altitude
Rises 19:07:00 0° 188° (S) 3,368 6.1 -10.7°
Reaches altitude 10° 19:09:29 10° 184° (S) 2,438 5.3 -11.0°
Maximum altitude 19:14:50 50° 110° (ESE) 1,058 3.3 -11.7°
Drops below altitude 10° 19:20:15 10° 37° (NE) 2,458 5.6 -12.5°
Sets 19:22:45 0° 32° (NNE) 3,399 6.4 -12.8°
